Time,TemperatureF,DewpointF,PressureIn,WindDirection,WindDirectionDegrees,WindSpeedMPH,WindSpeedGustMPH,Humidity,HourlyPrecipIn,Conditions,Clouds,dailyrainin,SoftwareType,DateUTC
2013-01-03 00:01:00,40.5,34.2,30.22,NNW,345,6.0,10.0,78,0.00,,,0.00,meteohub,2013-01-03 08:01:00,
2013-01-03 00:06:00,40.5,34.5,30.22,North,354,8.0,10.0,79,0.00,,,0.00,meteohub,2013-01-03 08:06:00,
2013-01-03 00:11:00,40.3,34.9,30.22,NNW,342,6.0,10.0,81,0.00,,,0.00,meteohub,2013-01-03 08:11:00,
2013-01-03 00:16:00,40.3,35.6,30.22,NNW,343,6.0,10.0,83,0.00,,,0.00,meteohub,2013-01-03 08:16:00,
2013-01-03 00:21:00,40.5,36.0,30.22,NNW,335,9.0,10.0,84,0.00,,,0.00,meteohub,2013-01-03 08:21:00,
2013-01-03 00:26:00,40.6,36.5,30.22,NNW,345,5.0,10.0,85,0.00,,,0.00,meteohub,2013-01-03 08:26:00,
2013-01-03 00:31:00,40.5,36.3,30.22,NNW,344,8.0,10.0,85,0.00,,,0.00,meteohub,2013-01-03 08:31:00,
2013-01-03 00:36:00,40.3,36.1,30.22,North,354,6.0,9.0,85,0.00,,,0.00,meteohub,2013-01-03 08:36:00,
2013-01-03 00:41:00,39.7,35.6,30.22,NNW,341,7.0,9.0,85,0.00,,,0.00,meteohub,2013-01-03 08:41:00,
2013-01-03 00:46:00,39.6,35.4,30.22,North,349,6.0,9.0,85,0.00,,,0.00,meteohub,2013-01-03 08:46:00,
2013-01-03 00:51:00,39.4,35.2,30.22,NNW,340,5.0,9.0,85,0.00,,,0.00,meteohub,2013-01-03 08:51:00,
2013-01-03 00:57:00,39.4,35.2,30.22,North,4,7.0,9.0,85,0.00,,,0.00,meteohub,2013-01-03 08:57:00,
2013-01-03 01:02:00,39.6,35.4,30.22,North,349,6.0,8.0,85,0.00,,,0.00,meteohub,2013-01-03 09:02:00,
2013-01-03 01:07:00,39.7,35.2,30.22,North,4,4.0,8.0,84,0.00,,,0.00,meteohub,2013-01-03 09:07:00,
2013-01-03 01:12:00,39.7,35.1,30.22,North,9,4.0,7.0,83,0.00,,,0.00,meteohub,2013-01-03 09:12:00,
2013-01-03 01:17:00,39.7,34.3,30.22,NNW,341,3.0,7.0,81,0.00,,,0.00,meteohub,2013-01-03 09:17:00,
2013-01-03 01:22:00,39.6,34.0,30.22,NW,324,4.0,5.0,80,0.00,,,0.00,meteohub,2013-01-03 09:22:00,
2013-01-03 01:27:00,39.4,33.4,30.22,NNW,330,6.0,7.0,79,0.00,,,0.00,meteohub,2013-01-03 09:27:00,
2013-01-03 01:32:00,39.4,33.1,30.22,NNW,337,5.0,10.0,78,0.00,,,0.00,meteohub,2013-01-03 09:32:00,
2013-01-03 01:37:00,39.4,33.4,30.22,NNW,330,2.0,10.0,79,0.00,,,0.00,meteohub,2013-01-03 09:37:00,
2013-01-03 01:43:00,39.4,33.8,30.22,North,354,4.0,10.0,80,0.00,,,0.00,meteohub,2013-01-03 09:43:00,
2013-01-03 01:48:00,39.6,34.2,30.23,North,359,4.0,7.0,81,0.00,,,0.00,meteohub,2013-01-03 09:48:00,
2013-01-03 01:53:00,39.4,34.3,30.23,NNW,345,4.0,7.0,82,0.00,,,0.00,meteohub,2013-01-03 09:53:00,
2013-01-03 01:58:00,39.0,34.0,30.23,North,359,4.0,7.0,82,0.00,,,0.00,meteohub,2013-01-03 09:58:00,
2013-01-03 02:03:00,38.8,34.2,30.23,NNW,332,3.0,7.0,83,0.00,,,0.00,meteohub,2013-01-03 10:03:00,
2013-01-03 02:08:00,38.7,34.2,30.23,NNW,347,3.0,7.0,84,0.00,,,0.00,meteohub,2013-01-03 10:08:00,
2013-01-03 02:13:00,38.5,34.2,30.23,North,359,3.0,7.0,84,0.00,,,0.00,meteohub,2013-01-03 10:13:00,
2013-01-03 02:18:00,38.1,33.1,30.22,NE,42,4.0,6.0,82,0.00,,,0.00,meteohub,2013-01-03 10:18:00,
2013-01-03 02:23:00,37.6,32.5,30.22,NE,41,2.0,6.0,82,0.00,,,0.00,meteohub,2013-01-03 10:23:00,
2013-01-03 02:28:00,37.2,32.2,30.22,NE,44,1.0,6.0,82,0.00,,,0.00,meteohub,2013-01-03 10:28:00,
2013-01-03 02:33:00,36.9,32.2,30.22,NE,43,0.0,6.0,83,0.00,,,0.00,meteohub,2013-01-03 10:33:00,
2013-01-03 02:38:00,36.9,32.2,30.22,NE,42,0.0,4.0,83,0.00,,,0.00,meteohub,2013-01-03 10:38:00,
2013-01-03 02:44:00,37.0,32.4,30.22,NE,39,1.0,2.0,83,0.00,,,0.00,meteohub,2013-01-03 10:44:00,
2013-01-03 02:49:00,37.0,32.4,30.22,WNW,298,4.0,4.0,83,0.00,,,0.00,meteohub,2013-01-03 10:49:00,
2013-01-03 02:54:00,37.0,32.4,30.22,West,281,4.0,4.0,83,0.00,,,0.00,meteohub,2013-01-03 10:54:00,
2013-01-03 02:59:00,36.9,32.5,30.22,WNW,292,4.0,5.0,84,0.00,,,0.00,meteohub,2013-01-03 10:59:00,
2013-01-03 03:04:00,36.9,32.5,30.22,NW,311,2.0,6.0,84,0.00,,,0.00,meteohub,2013-01-03 11:04:00,
2013-01-03 03:09:00,36.9,32.5,30.22,NNW,333,3.0,6.0,84,0.00,,,0.00,meteohub,2013-01-03 11:09:00,
2013-01-03 03:14:00,36.9,32.5,30.23,NNE,23,6.0,6.0,84,0.00,,,0.00,meteohub,2013-01-03 11:14:00,
2013-01-03 03:19:00,36.7,32.4,30.22,NNE,23,2.0,6.0,84,0.00,,,0.00,meteohub,2013-01-03 11:19:00,
2013-01-03 03:24:00,36.3,32.0,30.22,NNE,21,1.0,6.0,84,0.00,,,0.00,meteohub,2013-01-03 11:24:00,
2013-01-03 03:29:00,36.1,31.8,30.22,NNE,24,0.0,6.0,84,0.00,,,0.00,meteohub,2013-01-03 11:29:00,
2013-01-03 03:35:00,36.0,31.6,30.23,NNE,22,1.0,5.0,84,0.00,,,0.00,meteohub,2013-01-03 11:35:00,
2013-01-03 03:40:00,36.3,32.2,30.22,NNE,21,0.0,4.0,85,0.00,,,0.00,meteohub,2013-01-03 11:40:00,
2013-01-03 03:45:00,36.7,32.4,30.22,NNE,22,0.0,2.0,84,0.00,,,0.00,meteohub,2013-01-03 11:45:00,
2013-01-03 03:50:00,36.3,32.0,30.22,NNE,23,0.0,2.0,84,0.00,,,0.00,meteohub,2013-01-03 11:50:00,
2013-01-03 03:55:00,36.1,31.8,30.22,NNE,21,1.0,2.0,84,0.00,,,0.00,meteohub,2013-01-03 11:55:00,
2013-01-03 04:00:00,35.8,31.5,30.22,NNE,23,0.0,2.0,84,0.00,,,0.00,meteohub,2013-01-03 12:00:00,
2013-01-03 04:05:00,35.4,31.1,30.22,NNE,24,0.0,2.0,84,0.00,,,0.00,meteohub,2013-01-03 12:05:00,
2013-01-03 04:10:00,35.4,31.6,30.22,NNE,21,0.0,2.0,86,0.00,,,0.00,meteohub,2013-01-03 12:10:00,
2013-01-03 04:15:00,35.4,31.6,30.22,NNE,24,1.0,2.0,86,0.00,,,0.00,meteohub,2013-01-03 12:15:00,
2013-01-03 04:20:00,35.6,31.5,30.22,NNE,22,0.0,2.0,85,0.00,,,0.00,meteohub,2013-01-03 12:20:00,
2013-01-03 04:25:00,35.4,31.3,30.22,NNE,21,1.0,1.0,85,0.00,,,0.00,meteohub,2013-01-03 12:25:00,
2013-01-03 04:30:00,35.4,31.3,30.22,NNE,23,2.0,2.0,85,0.00,,,0.00,meteohub,2013-01-03 12:30:00,
2013-01-03 04:35:00,35.6,31.8,30.22,NNE,20,2.0,3.0,86,0.00,,,0.00,meteohub,2013-01-03 12:35:00,
2013-01-03 04:40:00,36.0,31.8,30.22,NNE,21,1.0,3.0,85,0.00,,,0.00,meteohub,2013-01-03 12:40:00,
2013-01-03 04:45:00,36.0,31.8,30.22,NNE,21,1.0,3.0,85,0.00,,,0.00,meteohub,2013-01-03 12:45:00,
2013-01-03 04:50:00,36.0,31.8,30.22,NNE,23,0.0,3.0,85,0.00,,,0.00,meteohub,2013-01-03 12:50:00,
2013-01-03 04:55:00,36.0,31.8,30.22,NNE,22,0.0,3.0,85,0.00,,,0.00,meteohub,2013-01-03 12:55:00,
2013-01-03 05:00:00,36.0,31.8,30.22,NNE,23,2.0,3.0,85,0.00,,,0.00,meteohub,2013-01-03 13:00:00,
2013-01-03 05:05:00,36.0,31.8,30.22,NNE,21,1.0,2.0,85,0.00,,,0.00,meteohub,2013-01-03 13:05:00,
2013-01-03 05:10:00,36.0,31.8,30.22,NNE,20,0.0,2.0,85,0.00,,,0.00,meteohub,2013-01-03 13:10:00,
2013-01-03 05:15:00,36.0,31.8,30.22,NNE,21,1.0,2.0,85,0.00,,,0.00,meteohub,2013-01-03 13:15:00,
2013-01-03 05:21:00,35.8,31.6,30.22,NNE,20,0.0,2.0,85,0.00,,,0.00,meteohub,2013-01-03 13:21:00,
2013-01-03 05:26:00,35.8,31.6,30.22,NNE,21,0.0,1.0,85,0.00,,,0.00,meteohub,2013-01-03 13:26:00,
2013-01-03 05:31:00,35.8,31.6,30.22,NNE,21,0.0,1.0,85,0.00,,,0.00,meteohub,2013-01-03 13:31:00,
2013-01-03 05:36:00,35.8,31.6,30.22,NNE,19,0.0,1.0,85,0.00,,,0.00,meteohub,2013-01-03 13:36:00,
2013-01-03 05:41:00,35.8,31.6,30.23,NNE,21,0.0,1.0,85,0.00,,,0.00,meteohub,2013-01-03 13:41:00,
2013-01-03 05:46:00,35.8,31.6,30.22,NNE,22,0.0,1.0,85,0.00,,,0.00,meteohub,2013-01-03 13:46:00,
2013-01-03 05:51:00,35.8,31.6,30.22,NNE,23,0.0,2.0,85,0.00,,,0.00,meteohub,2013-01-03 13:51:00,
2013-01-03 05:56:00,35.8,31.6,30.22,NNE,22,1.0,2.0,85,0.00,,,0.00,meteohub,2013-01-03 13:56:00,
2013-01-03 06:01:00,35.8,31.6,30.22,NNE,21,2.0,2.0,85,0.00,,,0.00,meteohub,2013-01-03 14:01:00,
2013-01-03 06:06:00,35.8,31.6,30.22,NW,314,3.0,4.0,85,0.00,,,0.00,meteohub,2013-01-03 14:06:00,
2013-01-03 06:11:00,36.0,31.8,30.22,NW,315,3.0,4.0,85,0.00,,,0.00,meteohub,2013-01-03 14:11:00,
2013-01-03 06:16:00,36.0,31.8,30.23,NW,314,2.0,4.0,85,0.00,,,0.00,meteohub,2013-01-03 14:16:00,
2013-01-03 06:21:00,35.8,31.6,30.23,North,359,0.0,4.0,85,0.00,,,0.00,meteohub,2013-01-03 14:21:00,
2013-01-03 06:26:00,35.8,31.6,30.24,NW,318,1.0,4.0,85,0.00,,,0.00,meteohub,2013-01-03 14:26:00,
2013-01-03 06:31:00,35.4,31.6,30.24,NW,320,2.0,4.0,86,0.00,,,0.00,meteohub,2013-01-03 14:31:00,
2013-01-03 06:36:00,35.2,31.5,30.24,NW,320,1.0,4.0,86,0.00,,,0.00,meteohub,2013-01-03 14:36:00,
2013-01-03 06:41:00,35.2,31.8,30.24,North,359,3.0,4.0,87,0.00,,,0.00,meteohub,2013-01-03 14:41:00,
2013-01-03 06:46:00,35.2,31.8,30.24,North,349,3.0,4.0,87,0.00,,,0.00,meteohub,2013-01-03 14:46:00,
2013-01-03 06:51:00,35.2,31.8,30.24,North,359,2.0,5.0,87,0.00,,,0.00,meteohub,2013-01-03 14:51:00,
2013-01-03 06:56:00,35.2,31.8,30.23,North,8,3.0,5.0,87,0.00,,,0.00,meteohub,2013-01-03 14:56:00,
2013-01-03 07:01:00,35.1,31.6,30.24,North,4,1.0,5.0,87,0.00,,,0.00,meteohub,2013-01-03 15:01:00,
2013-01-03 07:06:00,35.1,31.6,30.24,North,8,1.0,4.0,87,0.00,,,0.00,meteohub,2013-01-03 15:06:00,
2013-01-03 07:11:00,35.2,31.8,30.24,North,8,2.0,4.0,87,0.00,,,0.00,meteohub,2013-01-03 15:11:00,
2013-01-03 07:16:00,35.4,32.0,30.24,North,8,3.0,3.0,87,0.00,,,0.00,meteohub,2013-01-03 15:16:00,
2013-01-03 07:21:00,36.0,32.5,30.24,NW,318,4.0,4.0,87,0.00,,,0.00,meteohub,2013-01-03 15:21:00,
2013-01-03 07:26:00,36.3,32.9,30.25,NW,310,3.0,5.0,87,0.00,,,0.00,meteohub,2013-01-03 15:26:00,
2013-01-03 07:32:00,36.3,32.5,30.25,NW,312,2.0,5.0,86,0.00,,,0.00,meteohub,2013-01-03 15:32:00,
2013-01-03 07:37:00,36.3,32.5,30.25,NNW,346,3.0,5.0,86,0.00,,,0.00,meteohub,2013-01-03 15:37:00,
2013-01-03 07:42:00,36.3,32.5,30.24,North,4,2.0,4.0,86,0.00,,,0.00,meteohub,2013-01-03 15:42:00,
2013-01-03 07:47:00,36.3,32.5,30.25,North,4,3.0,5.0,86,0.00,,,0.00,meteohub,2013-01-03 15:47:00,
2013-01-03 07:52:00,36.3,32.2,30.25,North,4,2.0,5.0,85,0.00,,,0.00,meteohub,2013-01-03 15:52:00,
2013-01-03 07:57:00,36.3,32.2,30.25,North,8,1.0,5.0,85,0.00,,,0.00,meteohub,2013-01-03 15:57:00,
2013-01-03 08:02:00,36.7,32.9,30.25,North,4,0.0,5.0,86,0.00,,,0.00,meteohub,2013-01-03 16:02:00,
2013-01-03 08:07:00,37.0,32.9,30.25,North,9,0.0,3.0,85,0.00,,,0.00,meteohub,2013-01-03 16:07:00,
2013-01-03 08:12:00,37.6,33.3,30.26,North,11,1.0,3.0,84,0.00,,,0.00,meteohub,2013-01-03 16:12:00,
2013-01-03 08:17:00,37.9,33.6,30.26,North,4,0.0,1.0,84,0.00,,,0.00,meteohub,2013-01-03 16:17:00,
2013-01-03 08:22:00,38.3,33.6,30.26,North,9,0.0,1.0,83,0.00,,,0.00,meteohub,2013-01-03 16:22:00,
2013-01-03 08:27:00,38.8,34.2,30.26,NNE,12,0.0,1.0,83,0.00,,,0.00,meteohub,2013-01-03 16:27:00,
2013-01-03 08:32:00,39.2,34.2,30.27,North,4,0.0,1.0,82,0.00,,,0.00,meteohub,2013-01-03 16:32:00,
2013-01-03 08:37:00,39.4,34.0,30.27,NNE,14,0.0,1.0,81,0.00,,,0.00,meteohub,2013-01-03 16:37:00,
2013-01-03 08:42:00,39.6,34.2,30.27,North,4,1.0,1.0,81,0.00,,,0.00,meteohub,2013-01-03 16:42:00,
2013-01-03 08:47:00,39.7,34.3,30.27,North,10,2.0,2.0,81,0.00,,,0.00,meteohub,2013-01-03 16:47:00,
2013-01-03 08:52:00,39.9,34.5,30.28,North,4,0.0,3.0,81,0.00,,,0.00,meteohub,2013-01-03 16:52:00,
2013-01-03 08:58:00,40.1,34.7,30.28,North,4,0.0,3.0,81,0.00,,,0.00,meteohub,2013-01-03 16:58:00,
2013-01-03 09:03:00,40.3,34.9,30.28,North,9,0.0,3.0,81,0.00,,,0.00,meteohub,2013-01-03 17:03:00,
2013-01-03 09:08:00,40.6,35.2,30.28,North,8,0.0,1.0,81,0.00,,,0.00,meteohub,2013-01-03 17:08:00,
2013-01-03 09:13:00,41.0,35.6,30.29,North,4,0.0,0.0,81,0.00,,,0.00,meteohub,2013-01-03 17:13:00,
2013-01-03 09:18:00,41.4,36.0,30.29,NNE,12,0.0,0.0,81,0.00,,,0.00,meteohub,2013-01-03 17:18:00,
2013-01-03 09:23:00,41.7,36.3,30.29,North,4,0.0,1.0,81,0.00,,,0.00,meteohub,2013-01-03 17:23:00,
2013-01-03 09:28:00,42.1,36.7,30.29,North,10,0.0,1.0,81,0.00,,,0.00,meteohub,2013-01-03 17:28:00,
2013-01-03 09:33:00,42.4,37.0,30.29,North,8,0.0,0.0,81,0.00,,,0.00,meteohub,2013-01-03 17:33:00,
2013-01-03 09:38:00,42.6,36.9,30.29,North,8,0.0,2.0,80,0.00,,,0.00,meteohub,2013-01-03 17:38:00,
2013-01-03 09:43:00,42.8,37.0,30.29,North,4,0.0,3.0,80,0.00,,,0.00,meteohub,2013-01-03 17:43:00,
2013-01-03 09:48:00,43.0,36.9,30.29,North,4,0.0,3.0,79,0.00,,,0.00,meteohub,2013-01-03 17:48:00,
2013-01-03 09:53:00,43.3,37.2,30.29,North,4,0.0,3.0,79,0.00,,,0.00,meteohub,2013-01-03 17:53:00,
2013-01-03 09:58:00,43.9,37.8,30.29,North,4,1.0,2.0,79,0.00,,,0.00,meteohub,2013-01-03 17:58:00,
2013-01-03 10:03:00,44.4,38.3,30.29,North,4,1.0,6.0,79,0.00,,,0.00,meteohub,2013-01-03 18:03:00,
2013-01-03 10:08:00,44.8,38.3,30.29,NNW,348,4.0,6.0,78,0.00,,,0.00,meteohub,2013-01-03 18:08:00,
2013-01-03 10:13:00,45.0,38.5,30.29,North,359,3.0,6.0,78,0.00,,,0.00,meteohub,2013-01-03 18:13:00,
2013-01-03 10:18:00,45.1,38.7,30.29,NNW,341,5.0,7.0,78,0.00,,,0.00,meteohub,2013-01-03 18:18:00,
2013-01-03 10:23:00,45.3,38.5,30.29,North,359,5.0,7.0,77,0.00,,,0.00,meteohub,2013-01-03 18:23:00,
2013-01-03 10:28:00,45.7,38.8,30.29,NNW,339,6.0,7.0,77,0.00,,,0.00,meteohub,2013-01-03 18:28:00,
2013-01-03 10:33:00,46.0,38.8,30.30,NNW,342,6.0,7.0,76,0.00,,,0.00,meteohub,2013-01-03 18:33:00,
2013-01-03 10:38:00,46.4,38.8,30.30,NNW,335,8.0,9.0,75,0.00,,,0.00,meteohub,2013-01-03 18:38:00,
2013-01-03 10:43:00,46.8,39.2,30.30,NNW,342,3.0,10.0,75,0.00,,,0.00,meteohub,2013-01-03 18:43:00,
2013-01-03 10:48:00,47.3,39.4,30.29,North,359,6.0,10.0,74,0.00,,,0.00,meteohub,2013-01-03 18:48:00,
2013-01-03 10:53:00,47.7,39.7,30.29,North,350,4.0,9.0,74,0.00,,,0.00,meteohub,2013-01-03 18:53:00,
2013-01-03 10:59:00,48.0,39.7,30.29,NNW,336,5.0,8.0,73,0.00,,,0.00,meteohub,2013-01-03 18:59:00,
2013-01-03 11:04:00,48.4,39.7,30.29,NNW,344,6.0,9.0,72,0.00,,,0.00,meteohub,2013-01-03 19:04:00,
2013-01-03 11:09:00,48.7,40.1,30.29,North,359,9.0,10.0,72,0.00,,,0.00,meteohub,2013-01-03 19:09:00,
2013-01-03 11:14:00,48.9,39.9,30.29,North,354,7.0,10.0,71,0.00,,,0.00,meteohub,2013-01-03 19:14:00,
2013-01-03 11:56:00,50.2,40.1,30.28,ENE,76,5.0,12.0,68,0.00,,,0.00,meteohub,2013-01-03 19:56:00,
2013-01-03 12:01:00,50.9,39.9,30.27,NE,45,9.0,11.0,66,0.00,,,0.00,meteohub,2013-01-03 20:01:00,
2013-01-03 12:06:00,51.3,39.9,30.27,NNE,29,9.0,11.0,65,0.00,,,0.00,meteohub,2013-01-03 20:06:00,
2013-01-03 12:11:00,51.3,39.9,30.27,NE,42,8.0,13.0,65,0.00,,,0.00,meteohub,2013-01-03 20:11:00,
2013-01-03 12:16:00,51.4,39.7,30.27,NE,51,3.0,13.0,64,0.00,,,0.00,meteohub,2013-01-03 20:16:00,
2013-01-03 12:21:00,52.2,39.9,30.27,NNE,27,5.0,13.0,63,0.00,,,0.00,meteohub,2013-01-03 20:21:00,
2013-01-03 12:26:00,52.5,39.4,30.27,NNE,23,4.0,12.0,61,0.00,,,0.00,meteohub,2013-01-03 20:26:00,
2013-01-03 12:31:00,52.9,39.4,30.27,NE,39,10.0,12.0,60,0.00,,,0.00,meteohub,2013-01-03 20:31:00,
2013-01-03 12:36:00,52.7,39.2,30.27,ENE,60,8.0,12.0,60,0.00,,,0.00,meteohub,2013-01-03 20:36:00,
2013-01-03 12:41:00,53.1,39.6,30.27,ENE,77,5.0,11.0,60,0.00,,,0.00,meteohub,2013-01-03 20:41:00,
2013-01-03 12:46:00,53.4,39.9,30.26,NE,50,4.0,11.0,60,0.00,,,0.00,meteohub,2013-01-03 20:46:00,
2013-01-03 12:51:00,54.0,39.9,30.26,ENE,62,7.0,10.0,59,0.00,,,0.00,meteohub,2013-01-03 20:51:00,
2013-01-03 12:56:00,54.0,39.6,30.26,NE,36,4.0,10.0,58,0.00,,,0.00,meteohub,2013-01-03 20:56:00,
2013-01-03 13:01:00,54.0,39.0,30.26,East,82,8.0,11.0,57,0.00,,,0.00,meteohub,2013-01-03 21:01:00,
2013-01-03 13:06:00,53.8,39.4,30.25,NE,51,7.0,11.0,58,0.00,,,0.00,meteohub,2013-01-03 21:06:00,
2013-01-03 13:11:00,54.0,39.6,30.25,ENE,64,9.0,12.0,58,0.00,,,0.00,meteohub,2013-01-03 21:11:00,
2013-01-03 13:16:00,54.3,39.9,30.25,East,85,9.0,12.0,58,0.00,,,0.00,meteohub,2013-01-03 21:16:00,
2013-01-03 13:22:00,54.3,39.4,30.25,East,79,8.0,11.0,57,0.00,,,0.00,meteohub,2013-01-03 21:22:00,
2013-01-03 13:27:00,54.5,39.6,30.25,ENE,75,4.0,12.0,57,0.00,,,0.00,meteohub,2013-01-03 21:27:00,
2013-01-03 13:32:00,54.5,40.1,30.25,NE,45,6.0,12.0,58,0.00,,,0.00,meteohub,2013-01-03 21:32:00,
2013-01-03 13:37:00,54.9,40.3,30.25,ENE,66,7.0,11.0,58,0.00,,,0.00,meteohub,2013-01-03 21:37:00,
2013-01-03 13:43:00,55.0,41.0,30.25,ENE,75,5.0,11.0,59,0.00,,,0.00,meteohub,2013-01-03 21:43:00,
2013-01-03 13:48:00,55.0,41.0,30.25,NE,55,6.0,11.0,59,0.00,,,0.00,meteohub,2013-01-03 21:48:00,
2013-01-03 13:53:00,54.9,40.3,30.25,NE,54,6.0,10.0,58,0.00,,,0.00,meteohub,2013-01-03 21:53:00,
2013-01-03 13:58:00,55.0,40.5,30.25,ENE,71,7.0,10.0,58,0.00,,,0.00,meteohub,2013-01-03 21:58:00,
2013-01-03 14:04:00,55.2,40.6,30.25,NE,47,6.0,10.0,58,0.00,,,0.00,meteohub,2013-01-03 22:04:00,
2013-01-03 14:09:00,55.2,40.3,30.25,NE,48,3.0,10.0,57,0.00,,,0.00,meteohub,2013-01-03 22:09:00,
2013-01-03 14:14:00,55.2,40.6,30.25,NE,54,5.0,9.0,58,0.00,,,0.00,meteohub,2013-01-03 22:14:00,
2013-01-03 14:19:00,55.2,40.6,30.25,NNE,33,5.0,10.0,58,0.00,,,0.00,meteohub,2013-01-03 22:19:00,
2013-01-03 14:24:00,55.6,41.0,30.25,NNE,27,4.0,10.0,58,0.00,,,0.00,meteohub,2013-01-03 22:24:00,
2013-01-03 14:29:00,55.6,41.0,30.25,NE,47,7.0,9.0,58,0.00,,,0.00,meteohub,2013-01-03 22:29:00,
2013-01-03 14:34:00,55.2,41.2,30.25,NE,48,8.0,10.0,59,0.00,,,0.00,meteohub,2013-01-03 22:34:00,
2013-01-03 14:39:00,55.0,41.4,30.25,NE,51,6.0,11.0,60,0.00,,,0.00,meteohub,2013-01-03 22:39:00,
2013-01-03 14:44:00,55.0,41.4,30.25,NE,50,7.0,12.0,60,0.00,,,0.00,meteohub,2013-01-03 22:44:00,
2013-01-03 14:49:00,54.9,41.2,30.25,NE,50,9.0,12.0,60,0.00,,,0.00,meteohub,2013-01-03 22:49:00,
2013-01-03 14:54:00,54.9,41.7,30.25,NE,43,6.0,12.0,61,0.00,,,0.00,meteohub,2013-01-03 22:54:00,
2013-01-03 14:59:00,54.9,41.2,30.25,NE,55,7.0,13.0,60,0.00,,,0.00,meteohub,2013-01-03 22:59:00,
2013-01-03 15:04:00,55.0,41.4,30.25,NE,50,5.0,13.0,60,0.00,,,0.00,meteohub,2013-01-03 23:04:00,
2013-01-03 15:09:00,55.0,41.4,30.25,ENE,66,3.0,13.0,60,0.00,,,0.00,meteohub,2013-01-03 23:09:00,
2013-01-03 15:14:00,54.9,40.8,30.25,ENE,78,8.0,12.0,59,0.00,,,0.00,meteohub,2013-01-03 23:14:00,
2013-01-03 15:19:00,54.9,41.2,30.25,NE,45,5.0,12.0,60,0.00,,,0.00,meteohub,2013-01-03 23:19:00,
2013-01-03 15:24:00,54.9,40.8,30.26,NNE,31,8.0,12.0,59,0.00,,,0.00,meteohub,2013-01-03 23:24:00,
2013-01-03 15:29:00,54.9,40.8,30.26,NE,39,7.0,11.0,59,0.00,,,0.00,meteohub,2013-01-03 23:29:00,
2013-01-03 15:34:00,54.7,40.3,30.26,NE,54,5.0,10.0,58,0.00,,,0.00,meteohub,2013-01-03 23:34:00,
2013-01-03 15:39:00,54.7,40.3,30.26,NE,53,3.0,11.0,58,0.00,,,0.00,meteohub,2013-01-03 23:39:00,
2013-01-03 15:44:00,54.1,39.2,30.26,ENE,58,11.0,11.0,57,0.00,,,0.00,meteohub,2013-01-03 23:44:00,
2013-01-03 15:49:00,54.0,39.0,30.26,NE,37,7.0,13.0,57,0.00,,,0.00,meteohub,2013-01-03 23:49:00,
2013-01-03 15:54:00,53.8,39.4,30.26,ENE,70,5.0,13.0,58,0.00,,,0.00,meteohub,2013-01-03 23:54:00,
2013-01-03 15:59:00,53.8,39.4,30.27,ENE,61,4.0,13.0,58,0.00,,,0.00,meteohub,2013-01-03 23:59:00,
2013-01-03 16:04:00,53.6,39.2,30.27,NNE,33,3.0,12.0,58,0.00,,,0.00,meteohub,2013-01-04 00:04:00,
2013-01-03 16:09:00,53.8,39.4,30.27,NE,50,6.0,10.0,58,0.00,,,0.00,meteohub,2013-01-04 00:09:00,
2013-01-03 16:14:00,53.6,39.2,30.27,NE,46,3.0,10.0,58,0.00,,,0.00,meteohub,2013-01-04 00:14:00,
2013-01-03 16:19:00,53.4,39.0,30.27,NE,39,5.0,10.0,58,0.00,,,0.00,meteohub,2013-01-04 00:19:00,
2013-01-03 16:25:00,53.2,39.2,30.27,NE,41,5.0,8.0,59,0.00,,,0.00,meteohub,2013-01-04 00:25:00,
2013-01-03 16:30:00,53.1,39.2,30.27,NNE,27,4.0,7.0,59,0.00,,,0.00,meteohub,2013-01-04 00:30:00,
2013-01-03 16:35:00,52.9,39.0,30.27,NNE,23,3.0,7.0,59,0.00,,,0.00,meteohub,2013-01-04 00:35:00,
2013-01-03 16:40:00,52.7,38.8,30.27,NE,43,4.0,8.0,59,0.00,,,0.00,meteohub,2013-01-04 00:40:00,
2013-01-03 16:45:00,52.3,38.8,30.27,ENE,60,7.0,8.0,60,0.00,,,0.00,meteohub,2013-01-04 00:45:00,
2013-01-03 16:50:00,52.0,38.5,30.27,NNE,16,6.0,7.0,60,0.00,,,0.00,meteohub,2013-01-04 00:50:00,
2013-01-03 16:55:00,51.6,38.1,30.27,NE,37,3.0,7.0,60,0.00,,,0.00,meteohub,2013-01-04 00:55:00,
2013-01-03 17:00:00,51.4,37.9,30.27,NNE,13,5.0,7.0,60,0.00,,,0.00,meteohub,2013-01-04 01:00:00,
2013-01-03 17:05:00,51.3,38.3,30.27,NNE,18,6.0,7.0,61,0.00,,,0.00,meteohub,2013-01-04 01:05:00,
2013-01-03 17:10:00,50.9,37.9,30.27,NE,42,3.0,9.0,61,0.00,,,0.00,meteohub,2013-01-04 01:10:00,
2013-01-03 17:15:00,50.5,37.9,30.27,NE,43,5.0,9.0,62,0.00,,,0.00,meteohub,2013-01-04 01:15:00,
2013-01-03 17:20:00,50.4,38.3,30.28,NE,38,7.0,9.0,63,0.00,,,0.00,meteohub,2013-01-04 01:20:00,
2013-01-03 17:25:00,50.2,38.1,30.27,NE,53,4.0,9.0,63,0.00,,,0.00,meteohub,2013-01-04 01:25:00,
2013-01-03 17:30:00,50.0,38.3,30.28,NNE,23,4.0,9.0,64,0.00,,,0.00,meteohub,2013-01-04 01:30:00,
2013-01-03 17:35:00,49.8,38.1,30.28,NNE,15,5.0,8.0,64,0.00,,,0.00,meteohub,2013-01-04 01:35:00,
2013-01-03 17:40:00,49.6,37.9,30.28,North,9,5.0,6.0,64,0.00,,,0.00,meteohub,2013-01-04 01:40:00,
2013-01-03 17:45:00,49.6,38.3,30.28,NNE,24,6.0,7.0,65,0.00,,,0.00,meteohub,2013-01-04 01:45:00,
2013-01-03 17:50:00,49.5,38.1,30.28,NNE,18,6.0,7.0,65,0.00,,,0.00,meteohub,2013-01-04 01:50:00,
2013-01-03 17:55:00,49.5,38.1,30.28,NNE,31,6.0,8.0,65,0.00,,,0.00,meteohub,2013-01-04 01:55:00,
2013-01-03 18:00:00,49.3,37.9,30.29,North,8,5.0,8.0,65,0.00,,,0.00,meteohub,2013-01-04 02:00:00,
2013-01-03 18:05:00,49.1,38.3,30.29,NNE,26,5.0,9.0,66,0.00,,,0.00,meteohub,2013-01-04 02:05:00,
2013-01-03 18:10:00,48.9,38.1,30.29,NE,39,4.0,9.0,66,0.00,,,0.00,meteohub,2013-01-04 02:10:00,
2013-01-03 18:15:00,48.7,38.3,30.29,NNE,27,5.0,9.0,67,0.00,,,0.00,meteohub,2013-01-04 02:15:00,
2013-01-03 18:20:00,48.7,38.3,30.29,NNE,16,2.0,8.0,67,0.00,,,0.00,meteohub,2013-01-04 02:20:00,
2013-01-03 18:25:00,48.6,38.5,30.29,NNE,33,0.0,7.0,68,0.00,,,0.00,meteohub,2013-01-04 02:25:00,
2013-01-03 18:30:00,48.6,38.5,30.29,NE,36,2.0,6.0,68,0.00,,,0.00,meteohub,2013-01-04 02:30:00,
2013-01-03 18:35:00,48.6,38.5,30.30,North,354,4.0,5.0,68,0.00,,,0.00,meteohub,2013-01-04 02:35:00,
2013-01-03 18:40:00,48.4,38.7,30.30,NNW,335,5.0,5.0,69,0.00,,,0.00,meteohub,2013-01-04 02:40:00,
2013-01-03 18:46:00,47.8,38.5,30.30,North,354,5.0,6.0,70,0.00,,,0.00,meteohub,2013-01-04 02:46:00,
2013-01-03 18:51:00,47.7,38.7,30.29,North,350,6.0,6.0,71,0.00,,,0.00,meteohub,2013-01-04 02:51:00,
2013-01-03 18:56:00,47.3,38.3,30.29,North,350,6.0,7.0,71,0.00,,,0.00,meteohub,2013-01-04 02:56:00,
2013-01-03 19:01:00,47.1,38.5,30.29,North,4,5.0,7.0,72,0.00,,,0.00,meteohub,2013-01-04 03:01:00,
2013-01-03 19:06:00,46.9,38.3,30.29,NNE,16,5.0,7.0,72,0.00,,,0.00,meteohub,2013-01-04 03:06:00,
2013-01-03 19:11:00,46.9,38.3,30.29,North,350,4.0,7.0,72,0.00,,,0.00,meteohub,2013-01-04 03:11:00,
2013-01-03 19:16:00,46.9,38.3,30.29,North,359,4.0,7.0,72,0.00,,,0.00,meteohub,2013-01-04 03:16:00,
2013-01-03 19:21:00,46.8,38.3,30.29,NNW,339,4.0,6.0,72,0.00,,,0.00,meteohub,2013-01-04 03:21:00,
2013-01-03 19:26:00,46.6,38.5,30.29,NNW,343,5.0,6.0,73,0.00,,,0.00,meteohub,2013-01-04 03:26:00,
2013-01-03 19:31:00,46.2,38.5,30.29,NNW,343,5.0,6.0,74,0.00,,,0.00,meteohub,2013-01-04 03:31:00,
2013-01-03 19:36:00,46.0,38.3,30.29,NNW,341,5.0,6.0,74,0.00,,,0.00,meteohub,2013-01-04 03:36:00,
2013-01-03 19:41:00,45.7,38.3,30.29,North,359,5.0,6.0,75,0.00,,,0.00,meteohub,2013-01-04 03:41:00,
2013-01-03 19:46:00,45.5,38.3,30.29,North,359,5.0,7.0,76,0.00,,,0.00,meteohub,2013-01-04 03:46:00,
2013-01-03 19:51:00,45.3,38.1,30.30,NNW,329,5.0,7.0,76,0.00,,,0.00,meteohub,2013-01-04 03:51:00,
2013-01-03 19:56:00,45.1,38.3,30.30,NNW,331,6.0,7.0,77,0.00,,,0.00,meteohub,2013-01-04 03:56:00,
2013-01-03 20:01:00,45.0,38.1,30.30,North,349,4.0,8.0,77,0.00,,,0.00,meteohub,2013-01-04 04:01:00,
2013-01-03 20:06:00,45.0,38.1,30.30,NNW,346,4.0,8.0,77,0.00,,,0.00,meteohub,2013-01-04 04:06:00,
2013-01-03 20:11:00,44.8,38.3,30.30,North,354,5.0,7.0,78,0.00,,,0.00,meteohub,2013-01-04 04:11:00,
2013-01-03 20:16:00,44.8,38.3,30.30,NNE,12,4.0,6.0,78,0.00,,,0.00,meteohub,2013-01-04 04:16:00,
2013-01-03 20:21:00,45.0,38.1,30.30,NNE,14,4.0,6.0,77,0.00,,,0.00,meteohub,2013-01-04 04:21:00,
2013-01-03 20:26:00,44.8,37.9,30.30,NNE,13,4.0,6.0,77,0.00,,,0.00,meteohub,2013-01-04 04:26:00,
2013-01-03 20:31:00,44.6,37.8,30.30,North,350,0.0,6.0,77,0.00,,,0.00,meteohub,2013-01-04 04:31:00,
2013-01-03 20:36:00,44.4,37.9,30.30,North,354,2.0,5.0,78,0.00,,,0.00,meteohub,2013-01-04 04:36:00,
2013-01-03 20:41:00,44.2,37.8,30.30,North,354,0.0,4.0,78,0.00,,,0.00,meteohub,2013-01-04 04:41:00,
2013-01-03 20:46:00,44.4,37.9,30.31,North,354,0.0,4.0,78,0.00,,,0.00,meteohub,2013-01-04 04:46:00,
2013-01-03 20:51:00,44.4,37.9,30.31,North,354,0.0,3.0,78,0.00,,,0.00,meteohub,2013-01-04 04:51:00,
2013-01-03 20:57:00,44.2,37.8,30.31,North,354,0.0,2.0,78,0.00,,,0.00,meteohub,2013-01-04 04:57:00,
2013-01-03 21:02:00,44.2,37.8,30.30,North,359,0.0,2.0,78,0.00,,,0.00,meteohub,2013-01-04 05:02:00,
2013-01-03 21:03:00,44.2,37.8,30.31,North,354,1.0,2.0,78,0.00,,,0.00,meteohub,2013-01-04 05:03:00,
2013-01-03 21:06:00,44.6,37.8,30.30,North,354,0.0,1.0,77,0.00,,,0.00,meteohub,2013-01-04 05:06:00,
2013-01-03 21:11:00,44.8,37.8,30.30,North,354,0.0,2.0,76,0.00,,,0.00,meteohub,2013-01-04 05:11:00,
2013-01-03 21:16:00,45.0,37.9,30.31,North,354,0.0,2.0,76,0.00,,,0.00,meteohub,2013-01-04 05:16:00,
2013-01-03 21:21:00,44.8,37.8,30.31,North,354,2.0,2.0,76,0.00,,,0.00,meteohub,2013-01-04 05:21:00,
2013-01-03 21:26:00,44.4,37.6,30.31,NNW,341,3.0,4.0,77,0.00,,,0.00,meteohub,2013-01-04 05:26:00,
2013-01-03 21:32:00,44.1,37.6,30.31,NNW,344,3.0,4.0,78,0.00,,,0.00,meteohub,2013-01-04 05:32:00,
2013-01-03 21:37:00,44.1,37.6,30.31,NNW,343,3.0,4.0,78,0.00,,,0.00,meteohub,2013-01-04 05:37:00,
2013-01-03 21:42:00,44.1,37.6,30.31,NNW,344,3.0,4.0,78,0.00,,,0.00,meteohub,2013-01-04 05:42:00,
2013-01-03 21:47:00,43.9,37.4,30.31,NNW,343,2.0,4.0,78,0.00,,,0.00,meteohub,2013-01-04 05:47:00,
2013-01-03 21:52:00,44.1,37.6,30.31,NNW,344,2.0,3.0,78,0.00,,,0.00,meteohub,2013-01-04 05:52:00,
2013-01-03 21:57:00,43.9,37.4,30.31,NNW,344,2.0,3.0,78,0.00,,,0.00,meteohub,2013-01-04 05:57:00,
2013-01-03 22:02:00,43.5,37.0,30.31,NNW,344,2.0,3.0,78,0.00,,,0.00,meteohub,2013-01-04 06:02:00,
2013-01-03 22:07:00,43.3,37.2,30.31,NNW,336,1.0,3.0,79,0.00,,,0.00,meteohub,2013-01-04 06:07:00,
2013-01-03 22:12:00,43.3,37.2,30.32,NNW,334,2.0,4.0,79,0.00,,,0.00,meteohub,2013-01-04 06:12:00,
2013-01-03 22:17:00,43.2,37.4,30.32,NNW,336,2.0,6.0,80,0.00,,,0.00,meteohub,2013-01-04 06:17:00,
2013-01-03 22:22:00,43.2,37.4,30.32,NNW,335,2.0,6.0,80,0.00,,,0.00,meteohub,2013-01-04 06:22:00,
2013-01-03 22:27:00,43.0,37.2,30.32,NNW,337,4.0,4.0,80,0.00,,,0.00,meteohub,2013-01-04 06:27:00,
2013-01-03 22:32:00,42.8,37.0,30.32,NNW,345,4.0,4.0,80,0.00,,,0.00,meteohub,2013-01-04 06:32:00,
2013-01-03 22:37:00,42.8,37.0,30.32,North,354,4.0,5.0,80,0.00,,,0.00,meteohub,2013-01-04 06:37:00,
2013-01-03 22:42:00,42.8,37.0,30.32,North,359,5.0,6.0,80,0.00,,,0.00,meteohub,2013-01-04 06:42:00,
2013-01-03 22:47:00,42.6,36.9,30.32,North,4,5.0,6.0,80,0.00,,,0.00,meteohub,2013-01-04 06:47:00,
2013-01-03 22:52:00,42.6,36.9,30.32,North,10,5.0,6.0,80,0.00,,,0.00,meteohub,2013-01-04 06:52:00,
2013-01-03 22:57:00,42.6,36.9,30.32,NNE,17,5.0,7.0,80,0.00,,,0.00,meteohub,2013-01-04 06:57:00,
2013-01-03 23:02:00,42.6,36.9,30.32,NNE,23,4.0,7.0,80,0.00,,,0.00,meteohub,2013-01-04 07:02:00,
2013-01-03 23:07:00,43.0,36.9,30.32,NNE,29,4.0,7.0,79,0.00,,,0.00,meteohub,2013-01-04 07:07:00,
2013-01-03 23:13:00,43.2,36.7,30.32,NNE,29,2.0,7.0,78,0.00,,,0.00,meteohub,2013-01-04 07:13:00,
2013-01-03 23:18:00,43.2,36.7,30.31,NNE,30,0.0,7.0,78,0.00,,,0.00,meteohub,2013-01-04 07:18:00,
2013-01-03 23:23:00,43.3,36.7,30.32,NNE,31,1.0,5.0,77,0.00,,,0.00,meteohub,2013-01-04 07:23:00,
2013-01-03 23:28:00,43.2,36.7,30.31,NNE,30,2.0,4.0,78,0.00,,,0.00,meteohub,2013-01-04 07:28:00,
2013-01-03 23:33:00,42.8,36.5,30.31,NNW,344,3.0,4.0,78,0.00,,,0.00,meteohub,2013-01-04 07:33:00,
2013-01-03 23:38:00,42.4,36.3,30.31,NNW,337,4.0,4.0,79,0.00,,,0.00,meteohub,2013-01-04 07:38:00,
2013-01-03 23:43:00,42.3,36.5,30.31,NNW,339,2.0,5.0,80,0.00,,,0.00,meteohub,2013-01-04 07:43:00,
2013-01-03 23:48:00,42.1,36.3,30.31,NNW,343,4.0,5.0,80,0.00,,,0.00,meteohub,2013-01-04 07:48:00,
2013-01-03 23:53:00,41.9,36.1,30.31,NNW,343,3.0,5.0,80,0.00,,,0.00,meteohub,2013-01-04 07:53:00,
2013-01-03 23:58:00,41.7,36.0,30.31,North,354,3.0,5.0,80,0.00,,,0.00,meteohub,2013-01-04 07:58:00,